This is the latest recevied weather packets stored in our database for station/object KE5QKR. If no packets are shown the sender has not sent any weather packets the latest 10 day(s).
| Time | Temp. | Humidity | Pressure | Rain* | Wind** | Luminosity | Snow |
|---|---|---|---|---|---|---|---|
| 1777737532 | 18.33° C | 76% | 1014.9 hPa | 0 mm | - | 768 W/m² | - |
| 1777736925 | 17.78° C | 79% | 1015 hPa | 0 mm | - | 750 W/m² | - |
| 1777736013 | 17.22° C | 80% | 1014.9 hPa | 0 mm | - | 720 W/m² | - |
| 1777735711 | 17.22° C | 82% | 1014.8 hPa | 0 mm | - | 708 W/m² | - |
| 1777735408 | 17.22° C | 84% | 1014.6 hPa | 0 mm | - | 617 W/m² | - |
| 1777735106 | 17.22° C | 84% | 1014.9 hPa | 0 mm | - | 734 W/m² | - |
| 1777734802 | 16.11° C | 88% | 1014.8 hPa | 0 mm | - | 701 W/m² | - |
| 1777734500 | 16.11° C | 89% | 1014.8 hPa | 0 mm | - | 139 W/m² | - |
| 1777733893 | 15.56° C | 88% | 1014.6 hPa | 0 mm | - | 149 W/m² | - |
| 1777733286 | 15.56° C | 88% | 1014.5 hPa | 0 mm | - | 699 W/m² | - |
| 1777732983 | 15.56° C | 89% | 1014.3 hPa | 0 mm | - | 565 W/m² | - |
| 1777732678 | 15.56° C | 89% | 1014.1 hPa | 0 mm | - | 282 W/m² | - |
| 1777732376 | 15° C | 89% | 1014.5 hPa | 0 mm | - | 125 W/m² | - |
| 1777732074 | 15° C | 90% | 1014.3 hPa | 1.78 mm | - | 559 W/m² | - |
| 1777731770 | 15° C | 91% | 1014.4 hPa | 1.78 mm | - | 523 W/m² | - |
| 1777731467 | 14.44° C | 92% | 1014.4 hPa | 0 mm | - | 485 W/m² | - |
| 1777731166 | 14.44° C | 93% | 1014.4 hPa | 0 mm | - | 509 W/m² | - |
| 1777730863 | 14.44° C | 93% | 1014.3 hPa | 0 mm | - | 355 W/m² | - |
| 1777730561 | 13.89° C | 94% | 1014.4 hPa | 0 mm | - | 349 W/m² | - |
| 1777730256 | 13.89° C | 94% | 1014.3 hPa | 0 mm | - | 145 W/m² | - |
| 1777729043 | 12.78° C | 96% | 1014.7 hPa | 0 mm | - | 158 W/m² | - |
| 1777728739 | 12.78° C | 96% | 1014.6 hPa | 0 mm | - | 130 W/m² | - |
| 1777728436 | 12.78° C | 97% | 1014.5 hPa | 0 mm | - | 130 W/m² | - |
| 1777728134 | 12.78° C | 97% | 1014.4 hPa | 0 mm | - | 113 W/m² | - |
| 1777727830 | 12.22° C | 98% | 1014.5 hPa | 0 mm | - | 83 W/m² | - |
* Rain latest hour (hover to see other rain measurements)
** Current wind speed in m/s (hover to see current wind gust speed)